Current weather by "City, St" or "zip code"  
 
Advertise Here

Current Conditions: State College - University Park Airport, PA

Overcast


37.0 F

Last Updated on Nov 23 2020, 9:53 pm EST
Humidity: 75%
Wind Speed: W 10.4 mph
Barometer 30.23 in
Dewpoint: 30.2 F
Visibility: 10.00 mi
Precip: --
Heat Index: NA
Wind Chill: 30 F
Current conditions at:

State College - University Park Airport, PA (KUNV)

Lat: 40.85344 Lon: 77.8401

Local Radar Image active severe weather and emergency alerts image image weather storm and storm spotter reports image weather observation monitoring service image
Local
Radar
Active
Alerts
Storm Reports Obs
Monitoring

Sign-up For Email & Text Message Weather Alert Notification Services


Advertise Here

Observation History for State College - University Park Airport, PA


Time Wind
(mph)
Vis
(mi)
Weather Precip (in) Temperature (F) Relative
Humidity
Wind
Chill
(F)
Heat
Index
(F)
Pressure
Air Dwpt altimeter
(in)
sea level
(mb)
Rmks
9:53 pm EST W 10.4 10.00 Overcast -- 37.0 30.2 75% 30 NA 30.23 M
8:53 pm EST NW 6.9 10.00 Overcast -- 39.0 26.6 61% 34 NA 30.22 M
7:53 pm EST W 9.2 G 16.1 10.00 Overcast -- 39.0 30.2 70% 33 NA 30.21 M
6:53 pm EST W 8.1 10.00 Overcast -- 39.0 30.2 70% 33 NA 30.20 M
5:53 pm EST W 5.8 8.00 Showers in Vicinity -- 37.0 30.2 75% 32 NA 30.19 M
3:53 pm EST W 13.8 G 25.3 8.00 Mostly Cloudy -- 39.0 30.2 70% 31 NA 30.15 M
2:53 pm EST W 13.8 G 25.3 8.00 Mostly Cloudy -- 39.0 30.2 70% 31 NA 30.13 M
1:53 pm EST NW 139.2 G 25.3 10.00 Overcast and Windy -- 39.0 30.2 70% 18 NA 30.12 M
12:53 pm EST NW 13.8 G 20.7 10.00 Mostly Cloudy -- 39.0 32.0 75% 31 NA 30.12 M
11:53 am EST NW 19.6 G 24.2 10.00 Showers in Vicinity -- 41.0 28.4 61% 32 NA 30.14 M
10:53 am EST NW 10.4 G 20.7 10.00 Mostly Cloudy -- 39.0 30.2 70% 32 NA 30.14 M
9:53 am EST NW 11.5 G 17.3 10.00 Mostly Cloudy -- 39.0 32.0 75% 32 NA 30.13 M
8:53 am EST NW 12.7 G 19.6 10.00 Mostly Cloudy -- 37.0 30.2 75% 29 NA 30.11 M
7:53 am EST NW 9.2 10.00 Mostly Cloudy -- 37.0 30.2 75% 30 NA 30.09 M
6:53 am EST W 10.4 10.00 Overcast -- 37.0 32.0 81% 30 NA 30.07 M
5:53 am EST W 13.8 10.00 Overcast -- 39.0 33.8 81% 31 NA 30.06 M
4:55 am EST W 15.0 G 18.4 10.00 Overcast -- 42.0 36.3 81% 34 NA 30.02 M
3:55 am EST W 21.9 G 26.5 10.00 Overcast and Breezy -- 44.0 41.4 91% 35 NA 29.98 M
2:55 am EST W 12.7 10.00 Light Rain 00.01 47.0 46.9 98% 41 NA 29.93 M
1:55 am EST W 8.1 5.00 Heavy Drizzle -- 47.0 46.8 99% 43 NA 29.91 M
12:55 am EST SW 6.9 7.00 Light Rain -- 46.0 46.4 100% 42 NA 29.92 M
11:55 pm EST SW 8.1 7.00 Rain -- 47.0 45.7 97% 43 NA 29.95 M

Regional Weather Observation


State College - University Park Airport, PA (KUNV)

Overcast
37.0 F

Du Bois - Jefferson County Airport, PA (KDUJ)

Overcast
35.0 F

Altoona - Blair County Airport, PA (KAOO)

Overcast
38.0 F

Bradford Regional Airport, PA (KBFD)

Overcast
35.0 F

Johnstown - Cambria County Airport, PA (KJST)

Overcast
34.0 F

Williamsport - Lycoming County Airport, PA (KIPT)

Overcast
41.0 F